sat.trackr.live / text

‹ back to catalog

STARLINK-11118 [DTC]

NORAD 59754 · 2024-091B

PAYLOAD ACTIVE UNKNOWN

§ Identity

Operator
Country
US
Launch date
2024-05-14
Launch site
AFWTR
Launch vehicle
Mass (kg)
RCS (m²)

Purposes: comms

External: N2YO · Heavens-Above · Gunter

§ Orbital elements

Epoch: 2026-09-21T10:33:20.355552Z

Period
91.74 min
Inclination
53.1592°
Eccentricity
0.0001233
Mean motion
15.69709964 rev/d
Perigee alt
358.9 km
Apogee alt
360.6 km
Semi-major
6,737.9 km
B*
1.2882e-6
RAAN
321.6177°
Arg perigee
68.4418°
Mean anomaly
291.6731°
Rev number
13,625

§ Raw data

STARLINK-11118 [DTC]1 59754U 24091B   26264.43981893 -.00000433  00000+0  12882-5 0  99972 59754  53.1592 321.6177 0001233  68.4418 291.6731 15.69709964136256

JSON: /api/v1/satellites/59754 · /tle

For live sub-satellite position, see the globe view (requires WebGL).

§ Visibility from observer

Set your observer location to see the next 7 days of passes ≥ 10°. The values pass through the URL so the page stays shareable.

No JS? Fill the form by hand. The geolocation button needs JavaScript.